Regional Weather Roundup
Issued by NWS Green Bay, WI

Home | Current Version | Previous Version | Graphics & Text | Print | Product List | Glossary Off
Versions: 1 2 3 4 5 6 7 8 9 10 11 12 13 14 15 16 17 18 19 20 21 22 23 24 25 26 27 28 29 30 31 32 33 34 35 36 37 38 39 40 41 42 43 44 45 46 47 48 49 50

000
ASUS43 KGRB 312359
RWRGRB

NORTH-CENTRAL AND NORTHEAST WISCONSIN REGIONAL WEATHER ROUNDUP
NATIONAL WEATHER SERVICE GREEN BAY WI
700 PM CDT THU JUL 31 2014

WIZ005-009-010>012-018-019-010100-
NORTH CENTRAL WISCONSIN

CITY           SKY/WX    TMP DP  RH WIND       PRES   REMARKS
IRONWOOD       NOT AVBL
MANITOWISH WTR NOT AVBL
ARBOR VITAE    NOT AVBL
EAGLE RIVER    NOT AVBL
LAND O LAKES   NOT AVBL
RHINELANDER    SUNNY     73  55  53 CALM      30.00S
PHILLIPS       MOSUNNY   74  58  58 W3        29.99S
ANTIGO         NOT AVBL
TOMAHAWK       NOT AVBL
MERRILL        NOT AVBL
$$

WIZ013-073-010100-
NORTHEAST WISCONSIN

CITY           SKY/WX    TMP DP  RH WIND       PRES   REMARKS
IRON MOUNTAIN  SUNNY     75  48  38 NW6       29.96R
MARINETTE      SUNNY     77  55  47 CALM      29.94S
$$

WIZ017-030-035>037-045-010100-
CENTRAL WISCONSIN

CITY           SKY/WX    TMP DP  RH WIND       PRES   REMARKS
MEDFORD        NOT AVBL
WAUSAU         MOSUNNY   74  61  63 W8        29.97S
MOSINEE        MOSUNNY   73  61  64 NW8       30.00F
MARSHFIELD     MOSUNNY   74  60  61 W7        29.99S
WISC RAPIDS    MOSUNNY   78  59  51 W7        30.01R
STEVENS POINT  NOT AVBL
WAUPACA        CLOUDY    75  59  57 NW3       29.98R
SHAWANO        MOSUNNY   74  58  56 W6        29.96S
CLINTONVILLE   CLOUDY    72  54  53 W8        29.96F
$$

WIZ038-039-048-051-010100-
FOX VALLEY

CITY           SKY/WX    TMP DP  RH WIND       PRES   REMARKS
NWS GREEN BAY  PTSUNNY   73  62  68 W5        29.95F
APPLETON       PTSUNNY   70  59  68 CALM      29.97F
OSHKOSH        HVY RAIN  65  59  81 SE10      29.98R VSB 1/2
FOND DU LAC    MOSUNNY   78  59  51 VRB3      29.97S
$$

WIZ022-050-052-010100-
EAST CENTRAL WISCONSIN

CITY           SKY/WX    TMP DP  RH WIND       PRES   REMARKS
STURGEON BAY   SUNNY     73  59  60 S6        29.96F
MANITOWOC      NOT AVBL
SHEBOYGAN      PTSUNNY   73  63  70 S6        29.97S
$$

LMZ563-521-522-541>543-010100-
LAKESHORE

STATION/POSITION TIME  TEMP    WIND        PRES    VSBY  WAVE
                       AIR SEA DIR/SP/G                  HT/PER
                 (UTC) (F)     (DEG/KT/KT) (MB)    (MI)  (FT/S)
SHEBOYGAN LKSHOR 2300   70     170/ 14/ 16 1014.7F
KEWAUNEE LKSHORE 2300   59     180/  7/  9 1014.1R
ALGOMA MARINA    2300          210/  7/  8   N/A
NORTHPORT PIER   2300   71     190/  5/ 11 1013.9R
N MID LAKE BUOY  2300   59 55  220/ 14/ 16 1013.3R         2/ 4
S GREEN BAY BUOY 2300   73 71  160/  2     1015.1R
CHAMBERS ISLAND  2300   75     160/  2/  6 1013.9R
MENOMINEE LKSHOR 2300   79     250/  7/ 10 1014.5R
$$


USA.gov is the U.S. government's official web portal to all federal, state and local government web resources and services.